This is the latest recevied weather packets stored in our database for station/object OM2RC-6. If no packets are shown the sender has not sent any weather packets the latest 10 day(s).
| Time | Temp. | Humidity | Pressure | Rain* | Wind** | Luminosity | Snow |
|---|---|---|---|---|---|---|---|
| 1777919439 | 20.56° C | 41% | 1013.7 hPa | - | - | - | - |
| 1777919136 | 20.56° C | 41% | 1013.7 hPa | - | - | - | - |
| 1777918834 | 20.56° C | 41% | 1013.6 hPa | - | - | - | - |
| 1777918534 | 20.56° C | 41% | 1013.6 hPa | - | - | - | - |
| 1777918226 | 20.56° C | 40% | 1013.7 hPa | - | - | - | - |
| 1777917941 | 20.56° C | 41% | 1013.6 hPa | - | - | - | - |
| 1777917590 | 20.56° C | 42% | 1013.7 hPa | - | - | - | - |
| 1777917269 | 20.56° C | 42% | 1013.7 hPa | - | - | - | - |
| 1777916955 | 21.11° C | 41% | 1013.6 hPa | - | - | - | - |
| 1777916630 | 21.11° C | 41% | 1013.7 hPa | - | - | - | - |
| 1777916311 | 21.11° C | 41% | 1013.8 hPa | - | - | - | - |
| 1777915992 | 21.67° C | 39% | 1013.7 hPa | - | - | - | - |
| 1777915673 | 22.22° C | 39% | 1013.8 hPa | - | - | - | - |
| 1777915354 | 22.78° C | 38% | 1013.6 hPa | - | - | - | - |
| 1777915036 | 23.33° C | 37% | 1013.7 hPa | - | - | - | - |
| 1777914716 | 24.44° C | 36% | 1013.7 hPa | - | - | - | - |
| 1777914397 | 26.11° C | 34% | 1013.6 hPa | - | - | - | - |
| 1777914078 | 25.56° C | 34% | 1013.8 hPa | - | - | - | - |
| 1777913759 | 26.11° C | 34% | 1013.7 hPa | - | - | - | - |
| 1777913440 | 25° C | 35% | 1013.9 hPa | - | - | - | - |
| 1777913121 | 25° C | 35% | 1013.8 hPa | - | - | - | - |
| 1777912882 | 25° C | 35% | 1013.8 hPa | - | - | - | - |
| 1777912563 | 26.11° C | 34% | 1013.8 hPa | - | - | - | - |
| 1777912244 | 25° C | 35% | 1013.8 hPa | - | - | - | - |
| 1777911925 | 25° C | 35% | 1013.8 hPa | - | - | - | - |
* Rain since midnight (hover to see other rain measurements)
** Current wind speed in m/s (hover to see current wind gust speed)